Location: Dompnac
(44.5644°N, 4.1026°E)
Time: 05:48:10
(UTC+00:00)

NOSS 2-2 (E) - Pass Details

Date: 26 January 2021
Orbit: 462 x 1744 km, 63.3° (Epoch: 05 March)

Event Time Altitude Azimuth Distance (km) Brightness Sun altitude
Rises 17:26:32 0° 329° (NNW) 2,938 7.2 -7.8°
Reaches altitude 10° 17:29:37 10° 354° (N) 2,227 6.3 -8.3°
Maximum altitude 17:32:34 15° 29° (NNE) 2,091 5.8 -8.8°
Enters shadow 17:35:40 11° 61° (ENE) 2,596 6.1 -9.3°
